Martha's Vineyard, MA

9:34 PM EST on November 19, 2017 (GMT -0500)
Martha's Vineyard

Weather History for KMVY - October, 2012

Change the Weather History Date:

Thursday, October 4, 2012

  Actual Average Record
Temperature  
Mean Temperature 66 °F -  
Max Temperature 70 °F 66 °F 77 °F (2007)
Min Temperature 63 °F 50 °F 28 °F (1996)
Cooling Degree Days 2    
Growing Degree Days 16 (Base 50)    
Moisture  
Dew Point 62 °F    
Average Humidity 88    
Maximum Humidity 94    
Minimum Humidity 78    
Precipitation  
Precipitation 0.02 in - - ()
Sea Level Pressure  
Sea Level Pressure 30.09 in    
Wind  
Wind Speed 6 mph (North)    
Max Wind Speed 13 mph    
Max Gust Speed -    
Visibility 6 miles    
Events Rain    
Averages and records for this station are not official NWS values.
T = Trace of Precipitation, MM = Missing Value Source: NWS Daily Summary

Daily Weather History Graph

Daily Weather History Graph

Search for Another Location

Airport or City:

Trip Planner

Search our weather history database for the weather conditions in past years. The results will help you decide how hot, cold, wet, or windy it might be!

Date:

Astronomy

Oct. 04, 2012 Rise Set
Actual Time 6:42 AM EDT 6:18 PM EDT
Civil Twilight 6:15 AM EDT 6:46 PM EDT
Nautical Twilight 5:43 AM EDT 7:18 PM EDT
Astronomical Twilight 5:10 AM EDT 7:50 PM EDT
Moon 8:48 PM EDT (10/4) 11:00 AM EDT (10/4)
Length of Visible Light 12h 30m
Length of Day
11h 35m
Waning Gibbous, 82% of the Moon is Illuminated
Oct 4
Waning Gibbous
Oct 8
Last Quarter
Oct 15
New
Oct 21
First Quarter
Oct 29
Full

Hourly Weather History & Observations

Time (EDT) Temp. Dew Point Humidity Pressure Visibility Wind Dir Wind Speed Gust Speed Precip Events Conditions
12:07 AM 66.2 °F 64.4 °F 94% 30.12 in 0.8 mi North 3.5 mph - N/A   Mist
12:20 AM 66.2 °F 64.4 °F 94% 30.12 in 0.8 mi NNE 4.6 mph - N/A   Mist
12:31 AM 66.2 °F 64.4 °F 94% 30.12 in 0.8 mi NNE 5.8 mph - N/A   Mist
12:44 AM 66.2 °F 64.4 °F 94% 30.12 in 0.8 mi NE 4.6 mph - 0.00 in Rain Light Rain
12:53 AM 66.9 °F 64.0 °F 90% 30.12 in 1.0 mi NNE 5.8 mph - 0.00 in Rain Light Rain
1:53 AM 66.9 °F 64.0 °F 90% 30.12 in 1.5 mi North 4.6 mph - 0.00 in   Overcast
2:53 AM 66.0 °F 64.0 °F 93% 30.11 in 1.5 mi Calm Calm - 0.01 in   Overcast
3:53 AM 66.0 °F 63.0 °F 90% 30.11 in 1.5 mi North 5.8 mph - N/A   Overcast
4:53 AM 64.9 °F 62.1 °F 90% 30.12 in 1.5 mi NNW 6.9 mph - N/A   Overcast
5:53 AM 64.9 °F 62.1 °F 90% 30.12 in 1.5 mi NNW 4.6 mph - N/A   Overcast
6:00 AM 64.4 °F 62.6 °F 94% 30.12 in 4.0 mi North 5.8 mph - N/A   Overcast
6:28 AM 64.4 °F 62.6 °F 94% 30.12 in 1.5 mi NNW 6.9 mph - N/A   Overcast
6:53 AM 64.9 °F 62.1 °F 90% 30.12 in 2.0 mi NNW 8.1 mph - N/A   Overcast
7:53 AM 64.9 °F 62.1 °F 90% 30.13 in 3.0 mi NNW 8.1 mph - N/A   Overcast
8:34 AM 66.2 °F 62.6 °F 88% 30.12 in 5.0 mi North 5.8 mph - N/A   Overcast
8:53 AM 66.0 °F 62.1 °F 87% 30.12 in 10.0 mi North 6.9 mph - N/A   Overcast
9:53 AM 66.9 °F 63.0 °F 87% 30.12 in 10.0 mi North 6.9 mph - N/A   Overcast
10:03 AM 68.0 °F 62.6 °F 83% 30.12 in 10.0 mi NNW 9.2 mph - N/A   Overcast
10:53 AM 68.0 °F 63.0 °F 84% 30.11 in 10.0 mi NNW 8.1 mph - N/A   Overcast
11:53 AM 68.0 °F 63.0 °F 84% 30.11 in 10.0 mi NNW 9.2 mph - N/A   Overcast
12:53 PM 69.1 °F 63.0 °F 81% 30.09 in 10.0 mi North 11.5 mph - N/A   Overcast
1:53 PM 68.0 °F 62.1 °F 81% 30.08 in 10.0 mi NNW 12.7 mph - N/A   Overcast
2:53 PM 68.0 °F 63.0 °F 84% 30.06 in 10.0 mi North 9.2 mph - N/A   Overcast
3:53 PM 69.1 °F 62.1 °F 78% 30.04 in 10.0 mi NNE 9.2 mph - N/A   Overcast
4:53 PM 66.9 °F 61.0 °F 81% 30.04 in 10.0 mi NNE 8.1 mph - N/A   Mostly Cloudy
6:53 PM 64.9 °F 60.1 °F 84% 30.05 in 10.0 mi North 8.1 mph - N/A   Overcast
7:53 PM 64.9 °F 60.1 °F 84% 30.05 in 10.0 mi North 8.1 mph - N/A   Overcast
8:53 PM 64.0 °F 60.1 °F 87% 30.05 in 10.0 mi NNE 5.8 mph - N/A   Overcast
9:53 PM 64.0 °F 60.1 °F 87% 30.05 in 10.0 mi Calm Calm - N/A   Overcast
10:53 PM 64.0 °F 60.1 °F 87% 30.05 in 10.0 mi North 3.5 mph - N/A   Overcast
11:06 PM 64.4 °F 60.8 °F 88% 30.05 in 10.0 mi Calm Calm - N/A   Overcast
11:53 PM 63.0 °F 60.1 °F 90% 30.02 in 10.0 mi Calm Calm - 0.01 in Rain Light Rain